This is the latest recevied weather packets stored in our database for station/object OK3MS-5. If no packets are shown the sender has not sent any weather packets the latest 10 day(s).
| Time | Temp. | Humidity | Pressure | Rain* | Wind** | Luminosity | Snow |
|---|---|---|---|---|---|---|---|
| 1777802102 | 21.11° C | 40% | 1014.6 hPa | 0 mm | - | 710 W/m² | - |
| 1777801804 | 21.67° C | 38% | 1014.6 hPa | 0 mm | - | 706 W/m² | - |
| 1777801504 | 21.67° C | 41% | 1014.5 hPa | 0 mm | - | 698 W/m² | - |
| 1777801203 | 21.11° C | 41% | 1014.7 hPa | 0 mm | - | 694 W/m² | - |
| 1777800910 | 20.56° C | 42% | 1014.8 hPa | 0 mm | - | 692 W/m² | - |
| 1777800602 | 20.56° C | 41% | 1014.8 hPa | 0 mm | - | 683 W/m² | - |
| 1777800305 | 20.56° C | 41% | 1015 hPa | 0 mm | - | 679 W/m² | - |
| 1777800003 | 20° C | 43% | 1015 hPa | 0 mm | - | 670 W/m² | - |
| 1777799702 | 20° C | 42% | 1015.1 hPa | 0 mm | - | 665 W/m² | - |
| 1777799404 | 19.44° C | 43% | 1015.2 hPa | 0 mm | - | 658 W/m² | - |
| 1777799103 | 19.44° C | 43% | 1015.3 hPa | 0 mm | - | 653 W/m² | - |
| 1777798804 | 19.44° C | 43% | 1015.3 hPa | 0 mm | - | 646 W/m² | - |
| 1777798503 | 19.44° C | 43% | 1015.2 hPa | 0 mm | - | 639 W/m² | - |
| 1777798203 | 18.89° C | 44% | 1015.3 hPa | 0 mm | - | 632 W/m² | - |
| 1777797902 | 19.44° C | 44% | 1015.4 hPa | 0 mm | - | 625 W/m² | - |
| 1777797603 | 19.44° C | 44% | 1015.5 hPa | 0 mm | - | 613 W/m² | - |
| 1777797302 | 18.89° C | 44% | 1015.4 hPa | 0 mm | - | 603 W/m² | - |
| 1777797002 | 18.89° C | 43% | 1015.5 hPa | 0 mm | - | 591 W/m² | - |
| 1777796704 | 18.89° C | 44% | 1015.6 hPa | 0 mm | - | 577 W/m² | - |
| 1777796404 | 18.33° C | 44% | 1015.6 hPa | 0 mm | - | 562 W/m² | - |
| 1777796103 | 18.89° C | 44% | 1015.6 hPa | 0 mm | - | 546 W/m² | - |
| 1777795803 | 18.33° C | 44% | 1015.8 hPa | 0 mm | - | 543 W/m² | - |
| 1777795504 | 18.33° C | 45% | 1015.8 hPa | 0 mm | - | 529 W/m² | - |
| 1777795204 | 17.78° C | 46% | 1015.9 hPa | 0 mm | - | 517 W/m² | - |
| 1777794903 | 17.78° C | 46% | 1015.9 hPa | 0 mm | - | 499 W/m² | - |
* Rain latest hour (hover to see other rain measurements)
** Current wind speed in m/s (hover to see current wind gust speed)